This is the latest recevied weather packets stored in our database for station/object IW4DZV-13. If no packets are shown the sender has not sent any weather packets the latest 10 day(s).
| Time | Temp. | Humidity | Pressure | Rain* | Wind** | Luminosity | Snow |
|---|---|---|---|---|---|---|---|
| 1787856317 | 26.67° C | 79% | 1015.3 hPa | 0.51 mm | - | 0 W/m² | - |
| 1787855415 | 26.67° C | 78% | 1015.3 hPa | 0.51 mm | - | 0 W/m² | - |
| 1787854528 | 27.22° C | 77% | 1015.1 hPa | 0.51 mm | - | 0 W/m² | - |
| 1787853626 | 27.22° C | 75% | 1015.1 hPa | 0.51 mm | - | 5 W/m² | - |
| 1787852719 | 27.78° C | 74% | 1015.3 hPa | 0.51 mm | - | 12 W/m² | - |
| 1787851814 | 28.33° C | 71% | 1015.1 hPa | 0.51 mm | - | 21 W/m² | - |
| 1787850913 | 28.33° C | 71% | 1015.1 hPa | 0.25 mm | - | 35 W/m² | - |
| 1787850015 | 28.89° C | 69% | 1015.2 hPa | 0.25 mm | - | 49 W/m² | - |
| 1787849113 | 28.89° C | 67% | 1015.2 hPa | 0.25 mm | - | 65 W/m² | - |
| 1787848214 | 29.44° C | 66% | 1015.1 hPa | 0.25 mm | - | 79 W/m² | - |
| 1787847312 | 30° C | 66% | 1015 hPa | 0.25 mm | - | 95 W/m² | - |
| 1787846412 | 30° C | 65% | 1014.8 hPa | 0.25 mm | - | 118 W/m² | - |
| 1787845511 | 30° C | 64% | 1014.9 hPa | 0.25 mm | - | 137 W/m² | - |
| 1787844610 | 30° C | 63% | 1015 hPa | 0.25 mm | - | 142 W/m² | - |
| 1787843711 | 30.56° C | 64% | 1015.1 hPa | 0.25 mm | - | 142 W/m² | - |
| 1787842810 | 30.56° C | 61% | 1014.9 hPa | 0.25 mm | - | 186 W/m² | - |
| 1787841909 | 30.56° C | 63% | 1014.9 hPa | 0.25 mm | - | 216 W/m² | - |
| 1787841010 | 30.56° C | 61% | 1015 hPa | 0.25 mm | - | 220 W/m² | - |
| 1787840108 | 30.56° C | 61% | 1015.1 hPa | 0.25 mm | - | 236 W/m² | - |
| 1787839211 | 30.56° C | 61% | 1015.2 hPa | 0.25 mm | - | 227 W/m² | - |
| 1787838307 | 30.56° C | 60% | 1015.2 hPa | 0.25 mm | - | 262 W/m² | - |
| 1787837407 | 30.56° C | 62% | 1015.2 hPa | 0.25 mm | - | 327 W/m² | - |
| 1787836506 | 31.11° C | 61% | 1015 hPa | 0.25 mm | - | 503 W/m² | - |
| 1787835605 | 31.11° C | 61% | 1015.1 hPa | 0.25 mm | - | 478 W/m² | - |
| 1787834704 | 31.11° C | 60% | 1015.2 hPa | 0.25 mm | - | 540 W/m² | - |
* Rain since midnight (hover to see other rain measurements)
** Current wind speed in m/s (hover to see current wind gust speed)